Windom, MN

6:46 AM CDT on May 25, 2018 (GMT -0500)
Windom Municipal

Weather History for KMWM - May, 2013

Change the Weather History Date:

Saturday, May 18, 2013

  Actual Average Record
Temperature  
Mean Temperature 72 °F -  
Max Temperature 80 °F 74 °F 94 °F (1987)
Min Temperature 64 °F 48 °F 6 °F (2001)
Cooling Degree Days 7    
Growing Degree Days 22 (Base 50)    
Moisture  
Dew Point 61 °F    
Average Humidity 68    
Maximum Humidity 94    
Minimum Humidity 48    
Precipitation  
Precipitation 0.00 in - - ()
Sea Level Pressure  
Sea Level Pressure 29.85 in    
Wind  
Wind Speed 12 mph (SSE)    
Max Wind Speed 21 mph    
Max Gust Speed 30 mph    
Visibility 10 miles    
Events Thunderstorm    
Averages and records for this station are not official NWS values.
T = Trace of Precipitation, MM = Missing Value Source: NWS Daily Summary

Daily Weather History Graph

Daily Weather History Graph

Search for Another Location

Airport or City:

Astronomy

May. 18, 2013 Rise Set
Actual Time 5:51 AM CDT 8:43 PM CDT
Civil Twilight 5:17 AM CDT 9:16 PM CDT
Nautical Twilight 4:34 AM CDT 9:59 PM CDT
Astronomical Twilight 3:44 AM CDT 10:50 PM CDT
Moon 1:33 PM CDT (5/18) 1:58 AM CDT (5/18)
Length of Visible Light 15h 59m
Length of Day
14h 51m
First Quarter, 55% of the Moon is Illuminated
May 18
First Quarter
May 24
Full
May 31
Last Quarter
Jun 8
New
Jun 16
First Quarter

Hourly Weather History & Observations

Time (CDT) Temp. Heat Index Dew Point Humidity Pressure Visibility Wind Dir Wind Speed Gust Speed Precip Events Conditions
12:12 AM 64.4 °F - 62.6 °F 94% 29.89 in 5.0 mi ESE 12.7 mph - N/A   Clear
12:33 AM 64.4 °F - 62.6 °F 94% 29.89 in 7.0 mi SE 10.4 mph - N/A   Scattered Clouds
12:52 AM 66.2 °F - 60.8 °F 83% 29.89 in 10.0 mi SE 12.7 mph 16.1 mph N/A   Mostly Cloudy
1:12 AM 66.2 °F - 60.8 °F 83% 29.89 in 10.0 mi SSE 15.0 mph 18.4 mph N/A   Overcast
1:33 AM 66.2 °F - 60.8 °F 83% 29.90 in 10.0 mi SSE 10.4 mph 17.3 mph N/A   Overcast
1:52 AM 66.2 °F - 60.8 °F 83% 29.90 in 10.0 mi South 12.7 mph 17.3 mph N/A   Overcast
2:12 AM 66.2 °F - 60.8 °F 83% 29.89 in 10.0 mi South 10.4 mph 18.4 mph N/A   Scattered Clouds
2:33 AM 66.2 °F - 60.8 °F 83% 29.89 in 10.0 mi South 13.8 mph 19.6 mph N/A   Scattered Clouds
2:52 AM 66.2 °F - 60.8 °F 83% 29.88 in 10.0 mi South 13.8 mph 18.4 mph N/A   Scattered Clouds
3:12 AM 66.2 °F - 60.8 °F 83% 29.87 in 10.0 mi South 13.8 mph 18.4 mph N/A   Mostly Cloudy
3:33 AM 66.2 °F - 60.8 °F 83% 29.87 in 10.0 mi South 11.5 mph - N/A   Scattered Clouds
3:52 AM 66.2 °F - 60.8 °F 83% 29.88 in 10.0 mi South 11.5 mph 17.3 mph N/A   Scattered Clouds
4:13 AM 66.2 °F - 60.8 °F 83% 29.89 in 10.0 mi South 11.5 mph - N/A   Overcast
4:32 AM 66.2 °F - 60.8 °F 83% 29.88 in 10.0 mi SSE 11.5 mph 17.3 mph N/A   Overcast
4:52 AM 66.2 °F - 60.8 °F 83% 29.88 in 10.0 mi South 11.5 mph 18.4 mph N/A   Mostly Cloudy
5:12 AM 66.2 °F - 60.8 °F 83% 29.89 in 10.0 mi South 9.2 mph - N/A   Scattered Clouds
5:32 AM 66.2 °F - 59.0 °F 78% 29.89 in 10.0 mi South 10.4 mph 17.3 mph N/A   Clear
5:53 AM 64.4 °F - 59.0 °F 83% 29.89 in 10.0 mi South 9.2 mph - N/A   Clear
6:12 AM 64.4 °F - 59.0 °F 83% 29.90 in 10.0 mi South 11.5 mph - N/A   Clear
6:32 AM 64.4 °F - 59.0 °F 83% 29.90 in 10.0 mi South 12.7 mph - N/A   Scattered Clouds
6:53 AM 64.4 °F - 59.0 °F 83% 29.90 in 10.0 mi South 12.7 mph - N/A   Scattered Clouds
7:12 AM 66.2 °F - 60.8 °F 83% 29.90 in 10.0 mi South 10.4 mph - N/A   Mostly Cloudy
7:32 AM 66.2 °F - 60.8 °F 83% 29.90 in 10.0 mi South 11.5 mph - N/A   Scattered Clouds
7:53 AM 66.2 °F - 60.8 °F 83% 29.90 in 10.0 mi South 12.7 mph - N/A   Clear
8:12 AM 68.0 °F - 60.8 °F 78% 29.90 in 10.0 mi South 9.2 mph - N/A   Clear
8:33 AM 68.0 °F - 60.8 °F 78% 29.90 in 10.0 mi South 9.2 mph - N/A   Clear
8:53 AM 69.8 °F - 60.8 °F 73% 29.90 in 10.0 mi South 12.7 mph 17.3 mph N/A Thunderstorm Thunderstorm
9:12 AM 69.8 °F - 62.6 °F 78% 29.90 in 10.0 mi South 13.8 mph 18.4 mph N/A   Clear
9:33 AM 71.6 °F - 62.6 °F 73% 29.90 in 10.0 mi South 15.0 mph - N/A   Clear
9:53 AM 71.6 °F - 62.6 °F 73% 29.91 in 10.0 mi SSW 13.8 mph - N/A   Clear
10:12 AM 73.4 °F - 62.6 °F 69% 29.91 in 10.0 mi SSW 12.7 mph - N/A   Clear
10:33 AM 73.4 °F - 64.4 °F 73% 29.91 in 10.0 mi South 8.1 mph - N/A   Clear
10:53 AM 75.2 °F - 64.4 °F 69% 29.91 in 10.0 mi South 5.8 mph - N/A   Clear
11:12 AM 75.2 °F - 64.4 °F 69% 29.90 in 10.0 mi SSE 9.2 mph - N/A   Clear
11:32 AM 77.0 °F - 64.4 °F 65% 29.90 in 10.0 mi South 4.6 mph - N/A   Clear
11:53 AM 77.0 °F - 64.4 °F 65% 29.89 in 10.0 mi South 6.9 mph - N/A   Scattered Clouds
12:12 PM 78.8 °F - 64.4 °F 61% 29.88 in 10.0 mi SSE 9.2 mph - N/A   Scattered Clouds
12:32 PM 78.8 °F - 64.4 °F 61% 29.87 in 10.0 mi SSE 11.5 mph 17.3 mph N/A   Scattered Clouds
12:53 PM 78.8 °F - 64.4 °F 61% 29.87 in 10.0 mi SSE 11.5 mph 16.1 mph N/A   Mostly Cloudy
1:12 PM 80.6 °F 81.8 °F 62.6 °F 54% 29.86 in 10.0 mi SSE 11.5 mph - N/A   Scattered Clouds
1:32 PM 80.6 °F 81.8 °F 62.6 °F 54% 29.85 in 10.0 mi SSE 13.8 mph 17.3 mph N/A   Scattered Clouds
1:53 PM 80.6 °F 81.8 °F 62.6 °F 54% 29.85 in 10.0 mi SE 16.1 mph - N/A   Scattered Clouds
2:12 PM 80.6 °F 81.8 °F 62.6 °F 54% 29.85 in 10.0 mi SE 12.7 mph 18.4 mph N/A   Scattered Clouds
2:32 PM 80.6 °F 81.8 °F 62.6 °F 54% 29.85 in 10.0 mi SSE 13.8 mph 20.7 mph N/A   Scattered Clouds
2:53 PM 80.6 °F 81.8 °F 62.6 °F 54% 29.85 in 10.0 mi SSE 10.4 mph 18.4 mph N/A   Scattered Clouds
3:12 PM 80.6 °F 81.5 °F 60.8 °F 51% 29.84 in 10.0 mi SE 15.0 mph 20.7 mph N/A   Scattered Clouds
3:32 PM 80.6 °F 81.5 °F 60.8 °F 51% 29.83 in 10.0 mi SSE 17.3 mph 20.7 mph N/A   Scattered Clouds
3:53 PM 80.6 °F 81.5 °F 60.8 °F 51% 29.83 in 10.0 mi SSE 16.1 mph 23.0 mph N/A   Scattered Clouds
4:12 PM 80.6 °F 81.5 °F 60.8 °F 51% 29.82 in 10.0 mi SSE 13.8 mph 21.9 mph N/A   Scattered Clouds
4:32 PM 78.8 °F - 60.8 °F 54% 29.83 in 10.0 mi South 13.8 mph 25.3 mph N/A   Clear
4:53 PM 78.8 °F - 60.8 °F 54% 29.82 in 10.0 mi SSE 17.3 mph 23.0 mph N/A   Clear
5:12 PM 80.6 °F 81.1 °F 59.0 °F 48% 29.82 in 10.0 mi SSE 18.4 mph 23.0 mph N/A   Clear
5:32 PM 80.6 °F 81.1 °F 59.0 °F 48% 29.82 in 10.0 mi South 18.4 mph 24.2 mph N/A   Clear
5:53 PM 80.6 °F 81.5 °F 60.8 °F 51% 29.81 in 10.0 mi SSE 20.7 mph 26.5 mph N/A   Clear
6:12 PM 80.6 °F 81.1 °F 59.0 °F 48% 29.80 in 10.0 mi SSE 18.4 mph 29.9 mph N/A   Clear
6:32 PM 80.6 °F 81.1 °F 59.0 °F 48% 29.79 in 10.0 mi South 17.3 mph 25.3 mph N/A   Clear
6:52 PM 80.6 °F 81.5 °F 60.8 °F 51% 29.79 in 10.0 mi SSE 15.0 mph 25.3 mph N/A   Clear
7:12 PM 80.6 °F 81.5 °F 60.8 °F 51% 29.79 in 10.0 mi SSE 11.5 mph 18.4 mph N/A   Clear
7:33 PM 80.6 °F 81.5 °F 60.8 °F 51% 29.79 in 10.0 mi SSE 12.7 mph - N/A   Clear
7:52 PM 78.8 °F - 60.8 °F 54% 29.78 in 10.0 mi SSE 12.7 mph - N/A   Clear
8:12 PM 77.0 °F - 60.8 °F 57% 29.78 in 10.0 mi SSE 10.4 mph - N/A   Clear
8:33 PM 75.2 °F - 60.8 °F 61% 29.77 in 10.0 mi SE 6.9 mph - N/A   Clear
8:52 PM 75.2 °F - 60.8 °F 61% 29.76 in 10.0 mi SE 8.1 mph - N/A   Clear
9:13 PM 75.2 °F - 60.8 °F 61% 29.77 in 10.0 mi SE 8.1 mph - N/A   Clear
9:32 PM 73.4 °F - 60.8 °F 65% 29.78 in 10.0 mi ESE 8.1 mph - N/A   Clear
9:52 PM 73.4 °F - 60.8 °F 65% 29.78 in 10.0 mi ESE 5.8 mph - N/A   Clear
10:12 PM 71.6 °F - 60.8 °F 69% 29.78 in 10.0 mi SE 8.1 mph - N/A   Clear
10:32 PM 71.6 °F - 60.8 °F 69% 29.78 in 10.0 mi SE 6.9 mph - N/A   Clear
10:53 PM 71.6 °F - 60.8 °F 69% 29.76 in 10.0 mi ESE 8.1 mph - N/A   Clear
11:12 PM 71.6 °F - 60.8 °F 69% 29.76 in 10.0 mi SE 6.9 mph - N/A   Clear
11:32 PM 71.6 °F - 60.8 °F 69% 29.76 in 10.0 mi ESE 8.1 mph - N/A   Clear
11:53 PM 69.8 °F - 60.8 °F 73% 29.76 in 10.0 mi SE 5.8 mph - N/A   Clear